User: anonymous   Login
Location: Unspecified
(0.0000°N, 0.0000°E)
Time: 08:14:37
(UTC+00:00)
Language:

NOAA 9 - Orbit

View from above orbital plane
View from above orbital plane
View from above satellite
View from above satellite

Ground track
Ground track

The orbit data is extracted from the following two-line orbital elements,

1 15427U 84123A   18347.90160056 +.00000025 +00000-0 +35205-4 0  9993
2 15427 098.8690 292.3928 0014326 203.6374 193.8894 14.16054233755230
Epoch (UTC): 13 December 2018 21:38:18
Eccentricity: 0.0014326
inclination: 98.8690°
perigee height: 828 km
apogee height: 849 km
right ascension of ascending node: 292.3928°
argument of perigee: 203.6374°
revolutions per day: 14.16054233
mean anomaly at epoch: 193.8894°
orbit number at epoch: 75523

The dashed part of the orbit path shows where the satellite is in the earth's shadow,  

DLR